Showing default

COSMOS 2526, 43432

Orbit data source: Space-Track

COSMOS 2526, 43432 is a Commonwealth of Independent States-origin payload satellite in GEO that was launched on Wed, 18 Apr 2018 UTC via a PROTON-M/BRIZ-M launch vehicle from the Tyuratam Missile And Space Complex (TTMTR). Payload-class satellites include a variety of spacecraft equipped with specific instruments for various scientific and technological missions. These include communications satellites like Starlink; space stations such as the ISS; scientific satellites like the Hubble; Earth observation satellites from companies like Planet Labs, Umbra, and HawkEye 360; GPS; miniature CubeSats for education and research; and military/defense satellites.

Not visible in the next 10 days
Identifier
43432, 2018-037A
Orbit
GEO
Last TLE update
21 hours ago
Origin
Manufacturer
Resehetnev ISS
Mission
Operational Defense Communications
Bus & Motor
EKSPRESS-2000?, AOCS
Mass
3,162 kg wet, ~2,000 kg dry
Launch date (UTC)
2018-04-18 (7 years ago)
Launch vehicle
PROTON-M/BRIZ-M
Launch site
Tyuratam Missile And Space Complex (TTMTR)
Object type
Payload
Rocket body
Debris
Shape & HBR
Cyl + 2 Pan, 27 m
Radar Cross Section
24.423 m², Large (>1 m²)

Expand to show TLE details & history

TLE from 21 hours ago
0 COSMOS 2526
1 43432U 18037A   25183.70166082 -.00000337  00000-0  00000-0 0  9998
2 43432   0.0286  89.7340 0000527 151.1144  60.7691  1.00268479 26460
Epoch: 2025-07-02T16:50Z
TLE epoch observation values (Epoch: 2025-07-02T16:50:23.494Z)
Latitude
-0.02831°
Longitude
128.05496°
Altitude
35,785.923 km
Speed
3.075 km/s
True Right ascension
20h 06m 31s
True Declination
0° 01' 42"
Sunlit
Object was in daylight at epoch
Visualization orbit readout
Latitude
-0.00609°
Longitude
81.20258°
Altitude
35,784.975 km
Speed
3.075 km/s
Apparent Right ascension
16h 39m 14s
Apparent Declination
-5° 08' 38"
Sunlit
Object is in daylight
Visualization observer readout
Local Sidereal Time
01:26:29
Azimuth
295.702° NW
Elevation
-34.528°
Doppler factor
1
Orbital elements
Apogee altitude
35,790.814 km
Perigee altitude
35,786.37 km
Semi-major axis
42,166.729 km
Eccentricity
0.00005
Inclination
0.0286°
RAAN
89.734°
Arg. of periapsis
151.1144°
True anomaly
Unknown
Mean anomaly
60.7691°
Eccentric anomaly
Unknown
Mean motion
0.25066 °/min
Orbital period
1,436.2 mins
BSTAR
0
Loading historical data...
43432 neighbors
Loading maneuver chart data...
Loading SW <> Apogee altitude chart data...
Loading historical data...
Loading historical data...
Loading historical data...
Loading historical data...
Loading historical data...
Loading historical data...
Loading historical data...
Other satellites on launch #37 in the year 2018 (2018-04-18 UTC)

COSMOS 2526 Visibility

Observer location: undefined°, undefined°

COSMOS 2526 is likely not visible in the next few days
Span
Click to sort rows by Start time (UTC) header in descending order
Start Az.
Max El. time (UTC)
Max El. Az.
Max El.
End time (UTC)
End Az.
|